• In Belarus
  • List of Countries
  • For 7 days
  • Water Temperature
  • Weather Map
  • Weather Widgets
  • user-avatar
    Login

    Hourly Weather Innsbruck

    Today, 21 February, Friday

    Time Temperature Precipitation Wind Pressure Humidity
    00:00 -7°C° 0 mm 2 mps 594 mmHg 55%
    01:00 -7°C° 0 mm 2 mps 594 mmHg 55%
    02:00 -7°C° 0.1 mm 2 mps 594 mmHg 59%
    03:00 -7°C° 0.1 mm 2 mps 594 mmHg 63%
    04:00 -7°C° 0.1 mm 2 mps 595 mmHg 67%
    05:00 -7°C° 0.3 mm 2 mps 595 mmHg 75%
    06:00 -7°C° 0.3 mm 2 mps 596 mmHg 84%
    07:00 -8°C° 0.3 mm 2 mps 596 mmHg 92%
    14:00 -4°C° 0 mm 2 mps 599 mmHg 78%
    15:00 -2°C° 0 mm 1 mps 599 mmHg 76%
    16:00 -2°C° 0 mm 1 mps 599 mmHg 76%
    17:00 -3°C° 0 mm 1 mps 598 mmHg 78%
    18:00 -4°C° 0 mm 1 mps 598 mmHg 81%
    19:00 -7°C° 0 mm 1 mps 598 mmHg 84%
    20:00 -7°C° 0 mm 1 mps 598 mmHg 79%
    21:00 -7°C° 0 mm 1 mps 598 mmHg 73%
    22:00 -7°C° 0 mm 2 mps 598 mmHg 68%
    23:00 -6°C° 0 mm 1 mps 599 mmHg 64%

    Tomorrow, 22 February, Saturday

    Time Temperature Precipitation Wind Pressure Humidity
    00:00 -6°C° 0 mm 1 mps 599 mmHg 61%
    01:00 -6°C° 0 mm 1 mps 599 mmHg 57%
    02:00 -6°C° 0 mm 2 mps 599 mmHg 56%
    03:00 -6°C° 0 mm 2 mps 599 mmHg 55%
    04:00 -6°C° 0 mm 2 mps 599 mmHg 54%
    05:00 -5°C° 0 mm 2 mps 599 mmHg 59%
    06:00 -5°C° 0 mm 2 mps 600 mmHg 64%
    07:00 -5°C° 0 mm 2 mps 600 mmHg 69%
    08:00 -1°C° 0 mm 1 mps 601 mmHg 72%
    09:00 +1°C° 0 mm 1 mps 601 mmHg 74%
    10:00 +2°C° 0 mm 1 mps 602 mmHg 77%
    11:00 +3°C° 0 mm 1 mps 602 mmHg 76%
    12:00 +4°C° 0 mm 1 mps 602 mmHg 76%
    13:00 +5°C° 0 mm 1 mps 602 mmHg 76%
    14:00 +5°C° 0 mm 1 mps 602 mmHg 76%
    15:00 +5°C° 0 mm 1 mps 601 mmHg 76%
    16:00 +4°C° 0 mm 1 mps 601 mmHg 77%
    17:00 +3°C° 0 mm 1 mps 601 mmHg 72%
    18:00 +1°C° 0 mm 1 mps 600 mmHg 67%
    19:00 -2°C° 0 mm 2 mps 600 mmHg 62%
    20:00 -2°C° 0 mm 2 mps 600 mmHg 61%
    21:00 -2°C° 0 mm 2 mps 600 mmHg 59%
    22:00 -3°C° 0 mm 2 mps 600 mmHg 57%
    23:00 -3°C° 0 mm 2 mps 600 mmHg 58%

    Day after tomorrow, 23 February, Sunday

    Time Temperature Precipitation Wind Pressure Humidity
    00:00 -3°C° 0 mm 2 mps 600 mmHg 58%
    01:00 -3°C° 0 mm 2 mps 600 mmHg 58%
    02:00 -3°C° 0 mm 2 mps 600 mmHg 59%
    03:00 -3°C° 0 mm 2 mps 599 mmHg 60%
    04:00 -3°C° 0 mm 2 mps 599 mmHg 61%
    05:00 -3°C° 0 mm 2 mps 599 mmHg 63%
    06:00 -3°C° 0 mm 2 mps 599 mmHg 65%
    07:00 -3°C° 0 mm 2 mps 599 mmHg 68%
    08:00 -2°C° 0 mm 2 mps 599 mmHg 71%
    09:00 -1°C° 0 mm 2 mps 600 mmHg 75%
    10:00 +1°C° 0 mm 2 mps 600 mmHg 78%
    11:00 +1°C° 0 mm 2 mps 600 mmHg 80%
    12:00 +2°C° 0 mm 2 mps 600 mmHg 82%
    13:00 +3°C° 0 mm 2 mps 600 mmHg 84%
    14:00 +2°C° 0.1 mm 2 mps 599 mmHg 86%
    15:00 +2°C° 0.1 mm 2 mps 598 mmHg 89%
    16:00 +2°C° 0.1 mm 2 mps 598 mmHg 92%
    17:00 +2°C° 0 mm 2 mps 598 mmHg 91%
    18:00 +1°C° 0 mm 2 mps 598 mmHg 91%
    19:00 0°C° 0 mm 3 mps 598 mmHg 91%
    20:00 +1°C° 0 mm 2 mps 598 mmHg 91%
    21:00 +1°C° 0 mm 2 mps 597 mmHg 91%
    22:00 +1°C° 0 mm 2 mps 597 mmHg 90%
    23:00 +1°C° 0.2 mm 2 mps 597 mmHg 92%

    24 February, Monday

    Time Temperature Precipitation Wind Pressure Humidity
    00:00 +1°C° 0.2 mm 2 mps 597 mmHg 93%
    01:00 0°C° 0.2 mm 3 mps 597 mmHg 95%
    02:00 -1°C° 1.2 mm 3 mps 597 mmHg 95%
    03:00 -1°C° 1.2 mm 3 mps 597 mmHg 96%
    04:00 -1°C° 1.2 mm 3 mps 597 mmHg 97%
    05:00 -1°C° 1.7 mm 2 mps 598 mmHg 97%
    06:00 -1°C° 1.7 mm 2 mps 598 mmHg 97%
    07:00 -1°C° 1.7 mm 2 mps 598 mmHg 98%
    08:00 -1°C° 1.3 mm 2 mps 599 mmHg 97%
    09:00 -1°C° 1.3 mm 2 mps 599 mmHg 97%
    10:00 -1°C° 1.3 mm 2 mps 599 mmHg 97%
    11:00 +1°C° 0.2 mm 2 mps 599 mmHg 97%
    12:00 +2°C° 0.2 mm 1 mps 599 mmHg 96%
    13:00 +2°C° 0.2 mm 1 mps 599 mmHg 95%
    14:00 +3°C° 0 mm 1 mps 599 mmHg 94%
    15:00 +3°C° 0 mm 1 mps 599 mmHg 92%
    16:00 +4°C° 0 mm 1 mps 598 mmHg 90%
    17:00 +3°C° 0 mm 1 mps 598 mmHg 87%
    18:00 +2°C° 0 mm 1 mps 597 mmHg 85%
    19:00 -2°C° 0 mm 2 mps 597 mmHg 82%
    20:00 -2°C° 0 mm 2 mps 596 mmHg 80%
    21:00 -2°C° 0 mm 2 mps 596 mmHg 79%
    22:00 -2°C° 0 mm 2 mps 596 mmHg 77%
    23:00 -2°C° 0 mm 2 mps 596 mmHg 78%

    25 February, Tuesday

    Time Temperature Precipitation Wind Pressure Humidity
    00:00 -2°C° 0 mm 2 mps 595 mmHg 78%
    01:00 -3°C° 0 mm 2 mps 595 mmHg 78%
    02:00 -3°C° 0 mm 2 mps 594 mmHg 79%
    03:00 -3°C° 0 mm 2 mps 594 mmHg 80%
    04:00 -1°C° 0 mm 1 mps 594 mmHg 81%
    05:00 -1°C° 0 mm 1 mps 594 mmHg 82%
    06:00 -1°C° 0 mm 1 mps 593 mmHg 82%
    07:00 -1°C° 0 mm 1 mps 593 mmHg 83%
    08:00 0°C° 0 mm 1 mps 593 mmHg 83%
    09:00 +1°C° 0 mm 1 mps 593 mmHg 83%
    10:00 +2°C° 0 mm 1 mps 594 mmHg 83%
    11:00 +3°C° 0.1 mm 1 mps 593 mmHg 84%
    12:00 +3°C° 0.1 mm 1 mps 593 mmHg 84%
    13:00 +3°C° 0.1 mm 1 mps 593 mmHg 84%
    14:00 +3°C° 0.2 mm 1 mps 592 mmHg 86%
    15:00 +2°C° 0.2 mm 1 mps 591 mmHg 88%
    16:00 +2°C° 0.2 mm 1 mps 591 mmHg 90%
    17:00 +1°C° 0.6 mm 1 mps 590 mmHg 92%
    18:00 +1°C° 0.6 mm 1 mps 590 mmHg 94%
    19:00 0°C° 0.6 mm 1 mps 590 mmHg 97%
    20:00 0°C° 1.8 mm 1 mps 589 mmHg 97%
    21:00 -1°C° 1.8 mm 1 mps 589 mmHg 98%
    22:00 -1°C° 1.8 mm 1 mps 589 mmHg 98%
    23:00 -2°C° 1.2 mm 1 mps 589 mmHg 98%

    26 February, Wednesday

    Time Temperature Precipitation Wind Pressure Humidity
    00:00 -2°C° 1.2 mm 1 mps 588 mmHg 97%
    01:00 -3°C° 1.2 mm 1 mps 588 mmHg 97%
    02:00 -5°C° 0.7 mm 2 mps 587 mmHg 95%
    03:00 -6°C° 0.7 mm 2 mps 587 mmHg 93%
    04:00 -6°C° 0.7 mm 2 mps 587 mmHg 92%
    05:00 -8°C° 0 mm 2 mps 586 mmHg 90%
    06:00 -9°C° 0 mm 2 mps 586 mmHg 89%
    07:00 -10°C° 0 mm 2 mps 586 mmHg 88%
    08:00 -9°C° 0.1 mm 2 mps 586 mmHg 81%
    09:00 -7°C° 0.1 mm 2 mps 587 mmHg 75%
    10:00 -4°C° 0.1 mm 1 mps 587 mmHg 69%
    11:00 -4°C° 0.3 mm 1 mps 587 mmHg 70%
    12:00 -5°C° 0.3 mm 2 mps 587 mmHg 70%
    13:00 -5°C° 0.3 mm 2 mps 586 mmHg 71%
    14:00 -5°C° 0.2 mm 2 mps 586 mmHg 68%
    15:00 -5°C° 0.2 mm 2 mps 586 mmHg 66%
    16:00 -5°C° 0.2 mm 2 mps 586 mmHg 63%
    17:00 -6°C° 0.4 mm 2 mps 585 mmHg 69%
    18:00 -7°C° 0.4 mm 2 mps 584 mmHg 75%
    19:00 -7°C° 0.4 mm 1 mps 584 mmHg 82%
    20:00 -7°C° 1.1 mm 1 mps 584 mmHg 86%
    21:00 -7°C° 1.1 mm 1 mps 584 mmHg 89%
    22:00 -7°C° 1.1 mm 1 mps 584 mmHg 93%
    23:00 -8°C° 1 mm 1 mps 584 mmHg 93%
    Show more